Location: Indian Hills
(32.9760°N, 85.9450°W)
Time: 09:06:03
(UTC+00:00)

ISS - Visible Passes

Search period start: 06 March 2021 00:00
Search period end: 16 March 2021 00:00
Orbit: 417 x 422 km, 51.6° (Epoch: 05 March)

Date Brightness Start Highest point End Pass type
(mag) Time Alt. Az. Time Alt. Az. Time Alt. Az.
08 Mar -0.8 11:00:47 10° N 11:01:59 11° NNE 11:03:11 10° NE visible
10 Mar -1.8 11:01:14 10° NNW 11:04:09 27° NE 11:07:04 10° E visible
11 Mar -1.2 10:14:58 13° N 10:16:32 17° NNE 10:18:51 10° ENE visible
12 Mar -0.3 09:29:54 10° NE 09:29:54 10° NE 09:30:03 10° NE visible
12 Mar -3.8 11:02:54 11° NW 11:06:03 86° SW 11:09:23 10° SE visible
13 Mar -2.9 10:18:02 43° N 10:18:33 48° NE 10:21:48 10° ESE visible
14 Mar -0.5 09:33:22 13° E 09:33:22 13° E 09:33:55 10° E visible
14 Mar -2.4 11:06:24 17° W 11:07:40 22° SW 11:10:19 10° S visible
15 Mar -2.1 10:21:55 23° S 10:21:55 23° S 10:23:28 10° SSE visible
